M.P.E.C. 2015-Q41 Issued 2015 Aug. 21, 21:33 UT The Minor Planet Electronic Circulars contain information on unusual minor planets and routine data on comets. They are published on behalf of Division F of the International Astronomical Union by the Minor Planet Center, Smithsonian Astrophysical Observatory, Cambridge, MA 02138, U.S.A. Prepared using the Tamkin Foundation Computer Network MPC@CFA.HARVARD.EDU URL https://www.minorplanetcenter.net/ ISSN 1523-6714 2015 QN3 Observations: K15Q03N* C2015 08 19.18288 20 18 39.95 +02 14 44.5 17.4 VqEQ041703 K15Q03N C2015 08 19.18740 20 18 39.54 +02 14 04.3 17.7 VqEQ041703 K15Q03N C2015 08 19.20547520 18 37.73 +02 11 23.7 17.2 RtEQ041H01 K15Q03N C2015 08 19.21346820 18 37.00 +02 10 13.2 17.2 RtEQ041H01 K15Q03N C2015 08 19.21508 20 18 36.98 +02 09 59.9 17.8 VqEQ041703 K15Q03N C2015 08 19.22077520 18 36.32 +02 09 08.8 17.2 RtEQ041H01 K15Q03N C2015 08 19.22167 20 18 36.37 +02 09 02.1 17.8 VqEQ041703 K15Q03N C2015 08 19.22668320 18 35.78 +02 08 16.8 17.2 RtEQ041H01 K15Q03N C2015 08 19.22824 20 18 35.78 +02 08 04.1 17.7 VqEQ041703 K15Q03N KC2015 08 19.27050 20 18 30.33 +02 02 29.4 17.3 qEQ041W98 K15Q03N KC2015 08 19.27303 20 18 30.17 +02 02 07.6 17.6 qEQ041W98 K15Q03N KC2015 08 19.27513 20 18 29.96 +02 01 49.2 17.7 qEQ041W98 K15Q03N #C2015 08 19.34275 20 18 25.33 +01 51 25.3 17.3 VqEQ041H06 K15Q03N #C2015 08 19.34612 20 18 25.06 +01 50 56.4 17.8 VqEQ041H06 K15Q03N KC2015 08 19.83872 20 17 51.95 +00 42 35.8 17.5 RqEQ041958 K15Q03N KC2015 08 19.83993 20 17 51.56 +00 42 25.9 qEQ041204 K15Q03N IC2015 08 19.84245 20 17 51.36 +00 42 05.4 qEQ041204 K15Q03N KC2015 08 19.84498 20 17 51.15 +00 41 46.0 17.7 RqEQ041204 K15Q03N KC2015 08 19.84727 20 17 51.25 +00 41 27.5 17.5 RqEQ041958 K15Q03N KC2015 08 19.84751 20 17 50.95 +00 41 25.4 qEQ041204 K15Q03N KC2015 08 19.85005 20 17 50.75 +00 41 05.2 qEQ041204 K15Q03N C2015 08 19.85035 20 17 50.72 +00 41 02.6 qEQ041587 K15Q03N KC2015 08 19.85145 20 17 50.94 +00 40 53.8 17.6 RqEQ041958 K15Q03N C2015 08 19.85174 20 17 50.63 +00 40 51.5 17.1 RqEQ041587 K15Q03N C2015 08 19.85799 20 17 50.12 +00 40 01.2 qEQ041587 K15Q03N C2015 08 19.85870 20 17 50.06 +00 39 56.0 qEQ041587 K15Q03N KC2015 08 19.85944 20 17 49.97 +00 39 51.0 17.5 tEQ041104 K15Q03N KC2015 08 19.86738 20 17 49.34 +00 38 47.9 17.3 tEQ041104 K15Q03N KC2015 08 19.87656 20 17 48.93 +00 37 34.3 17.8 VqEQ041I93 K15Q03N KC2015 08 19.88118 20 17 48.28 +00 36 57.4 17.4 RqEQ041203 K15Q03N KC2015 08 19.88304 20 17 48.42 +00 36 42.7 17.8 VqEQ041I93 K15Q03N KC2015 08 19.88541 20 17 47.95 +00 36 23.0 17.6 RqEQ041C44 K15Q03N KC2015 08 19.88717 20 17 47.82 +00 36 09.5 17.8 RqEQ041C44 K15Q03N KC2015 08 19.88904 20 17 47.61 +00 35 55.4 17.4 RqEQ041160 K15Q03N KC2015 08 19.88928 20 17 47.92 +00 35 53.3 17.7 VqEQ041I93 K15Q03N KC2015 08 19.88947 20 17 47.61 +00 35 50.9 17.9 RqEQ041C44 K15Q03N KC2015 08 19.89058 20 17 47.53 +00 35 42.5 17.5 RqEQ041203 K15Q03N KC2015 08 19.89249 20 17 47.35 +00 35 27.9 17.5 RqEQ041160 K15Q03N KC2015 08 19.89272 20 17 47.37 +00 35 25.2 17.6 RqEQ041C44 K15Q03N KC2015 08 19.89502 20 17 47.21 +00 35 06.9 17.7 RqEQ041C44 K15Q03N KC2015 08 19.89593 20 17 47.06 +00 35 00.6 17.7 RqEQ041160 K15Q03N KC2015 08 19.90000 20 17 47.05 +00 34 29.5 17.6 RqEQ041C27 K15Q03N KC2015 08 19.90270 20 17 46.86 +00 34 07.8 18.0 RqEQ041C27 K15Q03N C2015 08 19.91689 20 17 45.49 +00 32 12.8 17.2 RqEQ041C23 K15Q03N C2015 08 19.92411 20 17 45.03 +00 31 14.7 17.2 RqEQ041C23 K15Q03N C2015 08 19.92555 20 17 44.89 +00 31 02.8 17.1 RqEQ041C23 K15Q03N C2015 08 19.92700 20 17 44.81 +00 30 51.7 17.4 RqEQ041C23 K15Q03N KC2015 08 19.92774 20 17 45.57 +00 30 54.8 17.7 RqEQ041J22 K15Q03N C2015 08 19.92844 20 17 44.72 +00 30 40.3 17.1 RqEQ041C23 K15Q03N KC2015 08 19.92853 20 17 44.80 +00 30 43.3 17.7 RqEQ041C27 K15Q03N KC2015 08 19.92995 20 17 45.38 +00 30 37.4 17.7 RqEQ041J22 K15Q03N KC2015 08 19.93192 20 17 45.23 +00 30 21.9 18.2 RqEQ041J22 K15Q03N KC2015 08 19.93856 20 17 44.00 +00 29 24.6 18.8 RqEQ041C27 K15Q03N C2015 08 20.12287920 17 33.16 +00 05 36.3 17.1 RtEQ041H01 K15Q03N C2015 08 20.13262 20 17 32.51 +00 04 22.7 17.5 RqEQ041G48 K15Q03N C2015 08 20.13326 20 17 32.45 +00 04 17.7 17.6 RqEQ041G48 K15Q03N C2015 08 20.13394 20 17 32.42 +00 04 12.4 17.4 RqEQ041G48 K15Q03N C2015 08 20.13462 20 17 32.36 +00 04 07.2 17.7 RqEQ041G48 K15Q03N C2015 08 20.13530 20 17 32.30 +00 04 02.1 17.6 RqEQ041G48 K15Q03N C2015 08 20.13596 20 17 32.26 +00 03 57.0 17.6 RqEQ041G48 K15Q03N IC2015 08 20.13639220 17 32.15 +00 03 52.8 17.1 RtEQ041H01 K15Q03N C2015 08 20.13941 20 17 32.06 +00 03 31.5 17.6 RoEQ041G48 K15Q03N C2015 08 20.14009 20 17 31.95 +00 03 26.1 17.7 RoEQ041G48 K15Q03N C2015 08 20.14076 20 17 31.95 +00 03 21.3 17.7 RoEQ041G48 K15Q03N C2015 08 20.14523620 17 31.48 +00 02 45.2 17.2 RtEQ041H01 K15Q03N C2015 08 20.15323 20 17 30.45 +00 01 41.8 17.7 RqEQ041H36 K15Q03N C2015 08 20.15495 20 17 30.33 +00 01 28.0 17.8 RqEQ041H36 K15Q03N C2015 08 20.15581 20 17 30.27 +00 01 21.4 17.4 RqEQ041H36 K15Q03N KC2015 08 20.25608 20 17 21.67 -00 10 39.9 17.7 qEQ041W98 K15Q03N KC2015 08 20.25691 20 17 21.59 -00 10 46.8 17.7 qEQ041W98 K15Q03N KC2015 08 20.25776 20 17 21.53 -00 10 52.8 17.9 qEQ041W98 K15Q03N KC2015 08 20.26522420 17 21.77 -00 12 26.1 17.6 VrEQ041H21 K15Q03N KC2015 08 20.26874320 17 21.53 -00 12 52.5 17.6 VrEQ041H21 K15Q03N KC2015 08 20.27252420 17 21.25 -00 13 20.9 17.7 VrEQ041H21 K15Q03N KC2015 08 20.47708 20 17 10.12 -00 37 48.8 17.7 VqEQ041E23 K15Q03N KC2015 08 20.49881 20 17 08.54 -00 40 26.6 17.9 VqEQ041E23 K15Q03N KC2015 08 20.50899 20 17 07.76 -00 41 40.4 17.5 VqEQ041E23 K15Q03N C2015 08 20.54323 20 17 04.81 -00 45 42.7 18.0 RtEQ041474 K15Q03N C2015 08 20.54523 20 17 04.68 -00 45 57.1 17.6 RtEQ041474 K15Q03N C2015 08 20.54723 20 17 04.53 -00 46 11.5 17.4 RtEQ041474 K15Q03N C2015 08 20.59916 20 17 03.64 -00 53 08.0 17.6 VqEQ041N55 K15Q03N C2015 08 20.60045 20 17 03.56 -00 53 17.0 17.7 VqEQ041N55 K15Q03N C2015 08 20.60235 20 17 03.42 -00 53 30.9 17.6 VqEQ041N55 K15Q03N C2015 08 20.60405 20 17 03.31 -00 53 43.1 17.7 VqEQ041N55 K15Q03N C2015 08 20.60922 20 17 02.94 -00 54 20.1 17.9 VqEQ041N55 K15Q03N C2015 08 20.61108 20 17 02.82 -00 54 33.3 17.8 VqEQ041N55 K15Q03N C2015 08 20.61270 20 17 02.70 -00 54 45.0 17.9 VqEQ041N55 K15Q03N C2015 08 20.61477 20 17 02.55 -00 55 00.2 18.1 VqEQ041N55 K15Q03N C2015 08 20.61652 20 17 02.41 -00 55 12.6 17.6 VqEQ041N55 K15Q03N C2015 08 20.83092 20 16 49.60 -01 20 23.7 18.0 V EQ041033 K15Q03N C2015 08 20.83217 20 16 49.51 -01 20 32.4 18.0 V EQ041033 K15Q03N C2015 08 20.83344 20 16 49.43 -01 20 41.0 18.3 V EQ041033 K15Q03N C2015 08 20.83469 20 16 49.35 -01 20 49.6 18.1 V EQ041033 K15Q03N KC2015 08 20.87952 20 16 46.76 -01 25 54.2 17.9 RqEQ041C27 K15Q03N KC2015 08 20.88391 20 16 46.50 -01 26 24.4 18.6 RqEQ041C27 K15Q03N C2015 08 20.88690 20 16 45.95 -01 26 48.4 18.3 V EQ041033 K15Q03N C2015 08 20.89387 20 16 45.51 -01 27 35.9 18.3 V EQ041033 K15Q03N KC2015 08 20.91810 20 16 44.22 -01 30 18.1 17.6 RqEQ041C27 K15Q03N KC2015 08 20.93178 20 16 43.32 -01 31 51.5 17.5 RqEQ041C27 K15Q03N C2015 08 21.03448 20 16 38.00 -01 42 51.4 18.9 RqEQ041Y00 K15Q03N C2015 08 21.03538 20 16 37.90 -01 42 57.3 18.4 RqEQ041Y00 K15Q03N C2015 08 21.03628 20 16 37.89 -01 43 03.1 18.6 RqEQ041Y00 K15Q03N KC2015 08 21.09032520 16 35.62 -01 49 37.3 18.1 VuEQ041H21 K15Q03N KC2015 08 21.09243620 16 35.47 -01 49 51.4 18.4 VuEQ041H21 K15Q03N KC2015 08 21.09454620 16 35.35 -01 50 05.6 18.3 VuEQ041H21 K15Q03N KC2015 08 21.09658820 16 35.23 -01 50 18.9 18.7 VuEQ041H21 K15Q03N KC2015 08 21.09869820 16 35.08 -01 50 33.1 18.5 VuEQ041H21 K15Q03N KC2015 08 21.10114820 16 34.92 -01 50 49.2 18.4 VuEQ041H21 K15Q03N C2015 08 21.13334 20 16 33.13 -01 54 22.3 17.8 RqEQ041H36 K15Q03N C2015 08 21.13506 20 16 33.02 -01 54 34.0 18.0 RqEQ041H36 K15Q03N C2015 08 21.13936 20 16 32.74 -01 55 02.4 17.7 RqEQ041H36 K15Q03N C2015 08 21.14022 20 16 32.68 -01 55 08.3 17.5 RqEQ041H36 K15Q03N C2015 08 21.48204 20 16 14.30 -02 31 08.9 17.5 RtEQ041474 K15Q03N C2015 08 21.48303 20 16 14.25 -02 31 15.4 17.4 RtEQ041474 K15Q03N C2015 08 21.48404 20 16 14.19 -02 31 21.9 17.6 RtEQ041474 K15Q03N C2015 08 21.48505 20 16 14.13 -02 31 28.0 17.4 RtEQ041474 K15Q03N KC2015 08 21.82595 20 15 58.60 -03 07 13.3 18.1 VqEQ041C43 K15Q03N KC2015 08 21.82991 20 15 58.44 -03 07 36.5 18.2 VqEQ041C43 K15Q03N KC2015 08 21.83322 20 15 58.30 -03 07 56.3 18.1 VqEQ041C43 K15Q03N KC2015 08 21.85225 20 15 57.41 -03 09 48.7 18.4 V EQ041151 K15Q03N KC2015 08 21.85859 20 15 57.04 -03 10 26.6 18.2 V EQ041151 Observer details: 033 Karl Schwarzschild Observatory, Tautenburg. Observers B. Stecklum, F. Ludwig. Measurer B. Stecklum. 1.34-m f/4 Schmidt + CCD. 104 San Marcello Pistoiese. Observer P. Bacci. Measurers P. Bacci, L. Tesi, G. Fagioli. 0.60-m f/4 reflector + CCD. 151 Eschenberg Observatory, Winterthur. Observer M. Griesser. 0.60-m f/3.8 astrograph + CCD. 160 Castelmartini. Observers M. Jaeger, E. Prosperi, S. Prosperi, W. Vollmann. Measurer E. Prosperi. 0.35-m f/10 Schmidt-Cassegrain + CCD. 203 GiaGa Observatory. Observers S. Foglia, G. Galli. Measurer G. Galli. 0.28-m f/6.8 Schmidt-Cassegrain + CCD. 204 Schiaparelli Observatory. Observer L. Buzzi. 0.60-m f/4.64 reflector + CCD. 474 Mount John Observatory, Lake Tekapo. Observers A. C. Gilmore, P. M. Kilmartin. Measurer P. M. Kilmartin. 1.0-m f/7.7 reflector + CCD. 587 Sormano. Observers A. Fumagalli, P. Sicoli, A. Testa. Measurer P. Sicoli. 0.5-m f/6.8 reflector + CCD. 703 Catalina Sky Survey. Observer R. A. Kowalski. Measurers E. J. Christensen, D. C. Fuls, A. R. Gibbs, A. D. Grauer, R. E. Hill, J. A. Johnson, R. A. Kowalski, S. M. Larson, R. G. Matheny, F. C. Shelly. 0.68-m Schmidt + CCD. 958 Observatoire de Dax. Observer P. Dupouy. 0.30-m f/6.3 Schmidt-Cassegrain + CCD. C23 Olmen. Observer A. Diepvens. 0.20-m f/9 refractor + CCD. C27 Pallerols. Observer A. Jorba. 0.25-m f/4.8 reflector + CCD. C43 Hoyerswerda. Observer P. Lindner. 0.30-m f/6.3 Schmidt-Cassegrain + CCD. C44 A. Volta Observatory, Lanzo d'Intelvi. Observer F. Tozzi. 0.40-m f/3.5 reflector + CCD. E23 Arcadia. Observer A. Hidas. 0.35-m f/7.0 Schmidt-Cassegrain + CCD. G48 Doc Greiner Research Obs., Rancho Hildalgo. Observer M. Mills. 0.4-m f/10 Schmidt-Cassegrain + CCD, 0.40-m f/10 Schmidt-Cassegrain + CCD. H01 Magdalena Ridge Observatory, Socorro. Observer W. H. Ryan. 2.4-m f/8.9 reflector + CCD. H06 iTelescope Observatory, Mayhill. Observer M. Suzuki. 0.43-m f/6.8 astrograph + CCD + f/4.5 focal reducer. H21 Astronomical Research Observatory, Westfield. Observer R. Holmes. Measurers S. Foglia, L. Buzzi, T. Linder, T. Lister, T. Vorobjov, R. Holmes. 0.61-m f/4.0 astrograph + CCD, 0.76-m f/3.0 astrograph + CCD. H36 Sandlot Observatory, Scranton. Observer G. Hug. 0.56-m reflector + CCD. I93 St Pardon de Conques. Observer F. Losse. 0.40-m f/3.7 reflector + CCD. J22 Tacande Observatory, La Palma. Observer K. Hills. 0.5-m f/2.9 astrograph + CCD. N55 Corona Borealis Observatory, Ngari. Observers T. Chen, L. K. Ming. 0.3-m astrograph + CCD. W98 Polonia Observatory, San Pedro de Atacama. Observers M. Gedek, M. Zolnowski, M. Kusiak, R. Reszelewski. Measurers R. Reszelewski, M. Kusiak. 0.25-m f/3.6 astrograph + CCD. Y00 SONEAR Observatory, Oliveira. Observers C. Jacques, E. Pimentel, J. Barros. Measurer C. Jacques. 0.45-m f/2.9 reflector + CCD. Orbital elements: 2015 QN3 Earth MOID = 0.0993 AU Epoch 2015 June 27.0 TT = JDT 2457200.5 MPC M 359.08198 (2000.0) P Q n 0.25182869 Peri. 31.32058 -0.98284265 +0.10224393 a 2.4835100 Node 153.22268 -0.11765189 -0.98851289 e 0.9174140 Incl. 19.92227 +0.14205056 -0.11130343 P 3.91 H 19.5 G 0.15 U 8 Residuals in seconds of arc 150819 703 0.1- 0.2+ 150819 C27 0.1- 0.1+ 150820 N55 0.1- 0.5- 150819 703 0.0 0.0 150819 C27 0.3+ 0.2- 150820 N55 0.0 0.5- 150819 H01 0.1- 0.0 150819 C23 1.3- 1.5+ 150820 N55 0.2- 0.6- 150819 H01 0.1- 0.0 150819 C23 0.2+ 0.4+ 150820 N55 0.0 0.6- 150819 703 0.3- 0.0 150819 C23 0.3- 0.1- 150820 N55 0.2- 0.7- 150819 H01 0.2- 0.0 150819 C23 0.2+ 0.2+ 150820 N55 0.3- 1.2- 150819 703 0.4- 0.3+ 150819 J22 0.1- 2.0- 150820 N55 0.5- 1.1- 150819 H01 0.2- 0.0 150819 C23 0.6+ 0.2+ 150820 033 0.2+ 0.2+ 150819 703 0.2- 0.1+ 150819 C27 0.2+ 0.4- 150820 033 0.0 0.1+ 150819 W98 0.8- 0.1- 150819 J22 0.3- 2.0- 150820 033 0.1+ 0.3+ 150819 W98 0.1+ 0.2+ 150819 J22 0.1- 2.0- 150820 033 0.1+ 0.3+ 150819 W98 0.4- 0.2+ 150819 C27 0.1+ 0.0 150820 C27 0.2- 0.3+ 150819 H06 0.1+ 0.1- 150820 H01 0.1- 0.4+ 150820 C27 0.3+ 0.2+ 150819 H06 0.4+ 0.1+ 150820 G48 0.0 0.3+ 150820 033 0.0 0.5+ 150819 958 0.2+ 0.5- 150820 G48 0.2- 0.2+ 150820 033 0.2+ 0.8+ 150819 204 0.2+ 0.3+ 150820 G48 0.1+ 0.1+ 150820 C27 0.1+ 0.3+ 150819 204 0.1+ 0.1- 150820 G48 0.0 0.1+ 150820 C27 0.2+ 0.1+ 150819 204 0.0 0.7+ 150820 G48 0.2- 0.2+ 150821 Y00 0.3- 0.5- 150819 958 0.3- 0.5- 150820 G48 0.0 0.2+ 150821 Y00 0.9- 0.4- 150819 204 0.0 0.4+ 150820 H01 0.0 0.4+ 150821 Y00 0.1- 0.1- 150819 204 0.0 0.4+ 150820 G48 0.9+ 1.1+ 150821 H21 0.1- 0.3+ 150819 587 0.1+ 0.3+ 150820 G48 0.0 0.9+ 150821 H21 0.3- 0.2+ 150819 958 0.0 0.8- 150820 G48 0.8+ 1.2+ 150821 H21 0.1- 0.1+ 150819 587 0.4+ 0.2+ 150820 H01 0.0 0.4+ 150821 H21 0.0 0.4+ 150819 587 0.1+ 0.2- 150820 H36 0.2- 0.5+ 150821 H21 0.2- 0.2+ 150819 587 0.1+ 0.3+ 150820 H36 0.1- 0.2- 150821 H21 0.3- 0.4+ 150819 104 0.1+ 0.3+ 150820 H36 0.0 0.3- 150821 H36 0.1+ 0.4+ 150819 104 0.1+ 0.5+ 150820 W98 0.1- 0.6+ 150821 H36 0.1+ 0.1+ 150819 I93 0.0 0.2+ 150820 W98 0.4- 0.1- 150821 H36 0.0 0.1+ 150819 203 0.1- 0.5+ 150820 W98 0.4- 0.3+ 150821 H36 0.1- 0.1- 150819 I93 0.0 0.2+ 150820 H21 0.2- 0.3+ 150821 474 0.1- 0.4+ 150819 C44 0.0 0.1- 150820 H21 0.1+ 0.3+ 150821 474 0.0 0.1+ 150819 C44 0.2+ 0.4+ 150820 H21 0.0 0.2+ 150821 474 0.0 0.0 150819 160 0.1- 0.1+ 150820 E23 0.1+ 0.2+ 150821 474 0.0 0.2+ 150819 I93 0.1- 0.3+ 150820 E23 0.2+ 0.2+ 150821 C43 0.9- 0.6- 150819 C44 0.3- 0.1+ 150820 E23 0.4- 0.2+ 150821 C43 0.1- 0.0 150819 203 0.2- 0.3+ 150820 474 0.1- 0.1+ 150821 C43 0.5+ 0.0 150819 160 0.2+ 0.0 150820 474 0.0 0.1+ 150821 151 0.2+ 0.3+ 150819 C44 0.0 0.2+ 150820 474 0.2- 0.1+ 150821 151 0.2- 0.3+ 150819 C44 0.3+ 0.1+ 150820 N55 0.1- 0.4- 150819 160 0.1- 0.0 150820 N55 0.0 0.1- Ephemeris: 2015 QN3 a,e,i = 2.48, 0.92, 20 q = 0.2051 Date TT R. A. (2000) Decl. Delta r Elong. Phase V 2015 07 22 07 48 58.2 +39 39 03 0.3858 0.6649 19.5 149.4 24.9 ... 2015 08 06 04 48 01.6 +78 58 17 0.1246 0.9755 68.5 104.7 18.8 ... 2015 08 14 20 31 19.4 +22 50 26 0.1392 1.1229 139.7 35.7 16.9 ... 2015 08 20 20 17 40.0 +00 21 53 0.2365 1.2268 152.6 22.3 17.9 2015 08 21 20 16 39.6 -01 39 05 0.2550 1.2437 152.6 22.0 18.1 2015 08 22 20 15 50.3 -03 23 55 0.2737 1.2604 152.3 21.9 18.2 ... 2015 08 28 20 13 27.2 -10 17 44 0.3918 1.3580 147.8 23.3 19.2 ... 2015 09 05 20 14 03.6 -14 48 28 0.5591 1.4819 140.2 25.8 20.3 ... 2015 09 20 20 20 53.0 -18 18 34 0.8943 1.6977 126.7 28.3 21.7 A. U. Tomatic (C) Copyright 2015 MPC M.P.E.C. 2015-Q41
